World > North America > United States > Utah   City of Salt Lake City, Utah

Salt Lake City, Utah Regional Weather

Lat: 40.78N, Lon: 111.87W
Wx Zone: UTZ003Web Search
Salt Lake City Weather Warning NWS WEATHER ALERT FOR THE SALT LAKE CITY, UT AREA - Issued: 353 AM MST Thu Feb 25 2021 Salt Lake City Weather Warning  

Ads allow us to feed your daily addiction for the world's greatest weather information. We're determined to offer quality sponsors, in the least annoying way possible.

Feedback
Salt Lake City Weather Map
UTC Time: 2/26/2021, 04:32
Your Time:

Salt Lake City, UT Regional Weather

Expires:202102260500;;127771
ASUS45 KSLC 260410
RWRUT 

UTAH REGIONAL WEATHER ROUNDUP
NATIONAL WEATHER SERVICE SALT LAKE CITY UT
900 PM MST THU FEB 25 2021


UTZ001>011-023>025-260500-

NORTHERN UTAH
  
CITY           SKY/WX    TMP DP  RH WIND       PRES   REMARKS
BRIGHAM CITY   CLOUDY    34  15  45 N5        30.06F WCI  30          
HILL AFB       MOCLDY    32   7  34 S9        30.03F WCI  24          
LOGAN          CLOUDY    32  12  43 CALM      30.03F                  
OGDEN          CLOUDY    33   6  32 S5        30.04F WCI  29          
SALT LAKE CITY MOCLDY    34   9  35 CALM      30.04F                  
TOOELE VALLEY  PTCLDY    30  16  55 CALM      30.04F                  
WENDOVER       CLEAR     28   3  34 W6        30.07S WCI  22          
HEBER CITY       N/A     28   1  31 SE3       30.02F                  
WEST JORDAN    PTCLDY    31  15  52 S9        30.05F WCI  23          

$$


SKY/WX - Weather  TMP - Temperature  DP - Dew Point  RH - Relative Humidity
WIND - Wind Direction/Speed PRES - Barometric Pressure VSB - Visibility
WCI - Wind Chill Index E13G22 Wind - East Wind 13 mph/Gusts of 22 mph